This demonstration page uses our WeatherBlox Daily Observations layout. Learn more.

Left ArrowRight Arrow

39.29038, -76.61219

Hourly Observations for October 4, 2020

Temp ( °F °C ) Dew Point ( °F °C ) Humidity (%) Winds ( mph kmh ) Pressure ( in mb ) Visibility ( mi km ) Precip ( " mm )
12:54 am 00:54 Clear 49 9.4 44 6.7 83 83 Calm 30.26 1025 10 16 0.00 0.00
1:54 am 01:54 Clear 47 8.3 44 6.7 90 90 Calm 30.27 1025 10 16 0.00 0.00
2:54 am 02:54 Clear 46 7.8 43 6.1 89 89 Calm 30.25 1024 10 16 0.00 0.00
3:54 am 03:54 Clear 45 7.2 43 6.1 93 93 Calm 30.24 1024 10 16 0.00 0.00
4:54 am 04:54 Mostly Clear 45 7.2 42 5.6 90 90 W 3 6 30.24 1024 10 16 0.00 0.00
5:54 am 05:54 Mostly Clear 43 6.1 41 5 93 93 W 3 6 30.24 1024 10 16 0.00 0.00
6:54 am 06:54 Mostly Clear 45 7.2 42 5.6 90 90 Calm 30.24 1024 10 16 0.00 0.00
7:54 am 07:54 Mostly Sunny 46 7.8 43 6.1 89 89 Calm 30.26 1025 10 16 0.00 0.00
8:54 am 08:54 Mostly Sunny 54 12.2 47 8.3 77 77 VRB 3 6 30.25 1025 10 16 0.00 0.00
9:54 am 09:54 Mostly Sunny 60 15.6 50 10 70 70 E 3 6 30.24 1024 10 16 0.00 0.00
10:54 am 10:54 Mostly Sunny 64 17.8 47 8.3 54 54 VRB 3 6 30.23 1024 10 16 0.00 0.00
11:54 am 11:54 Mostly Sunny 66 18.9 41 5 40 40 E 8 13 30.21 1023 10 16 0.00 0.00
12:54 pm 12:54 Mostly Sunny 66 18.9 43 6.1 43 43 E 7 11 30.20 1023 10 16 0.00 0.00
1:54 pm 13:54 Mostly Sunny 67 19.4 42 5.6 41 41 ENE 8 13 30.16 1021 10 16 0.00 0.00
2:54 pm 14:54 Mostly Sunny 67 19.4 42 5.6 41 41 ESE 9 15 30.13 1020 10 16 0.00 0.00
3:54 pm 15:54 Partly Cloudy 68 20 43 6.1 40 40 undefined N/A 30.12 1020 10 16 0.00 0.00
4:54 pm 16:54 Partly Cloudy 67 19.4 43 6.1 42 42 E 6 9 30.10 1019 10 16 0.00 0.00
5:54 pm 17:54 Partly Cloudy 66 18.9 45 7.2 47 47 E 5 7 30.08 1019 10 16 0.00 0.00
6:54 pm 18:54 Mostly Cloudy 63 17.2 46 7.8 54 54 ESE 3 6 30.09 1019 10 16 0.00 0.00
7:54 pm 19:54 Mostly Cloudy 58 14.4 51 10.6 78 78 W 3 6 30.10 1019 10 16 0.00 0.00
8:54 pm 20:54 Mostly Cloudy 58 14.4 51 10.6 78 78 Calm 30.09 1019 10 16 0.00 0.00
9:54 pm 21:54 Mostly Cloudy 57 13.9 52 11.1 83 83 Calm 30.09 1019 10 16 0.00 0.00
10:54 pm 22:54 Cloudy 56 13.3 52 11.1 87 87 Calm 30.09 1019 10 16 0.00 0.00
11:54 pm 23:54 Mostly Cloudy 56 13.3 52 11.1 87 87 Calm 30.09 1019 10 16 0.00 0.00

Powered by AerisWeather